Location: G�nzburg
(48.4565°N, 10.3217°E)
Time: 19:54:10
(UTC+01:00)

ISS - Visible Passes

Search period start: 19 January 2018 00:00
Search period end: 29 January 2018 00:00
Orbit: 402 x 407 km, 51.6° (Epoch: 20 January)

Date Brightness Start Highest point End Pass type
(mag) Time Alt. Az. Time Alt. Az. Time Alt. Az.
25 Jan -0.9 19:45:45 10° SW 19:46:07 12° SW 19:46:07 12° SW visible
26 Jan -2.3 18:53:53 10° SSW 18:56:11 24° SSE 18:56:11 24° SSE visible
27 Jan -1.7 18:02:27 10° S 18:04:25 15° SE 18:06:11 11° ESE visible
27 Jan -1.9 19:37:11 10° WSW 19:38:51 28° SW 19:38:51 28° SW visible
28 Jan -3.4 18:44:56 10° SW 18:48:05 47° SSE 18:48:45 39° ESE visible
28 Jan -0.2 20:21:20 10° W 20:21:25 11° W 20:21:25 11° W visible
